Los Angeles Downtown, CA

11:56 PM PDT on June 28, 2017 (GMT -0700)
Los Angeles Downtown

Weather History for KCQT - October, 2013

Change the Weather History Date:

Wednesday, October 30, 2013

  Actual Average Record
Temperature  
Mean Temperature 61 °F 66 °F  
Max Temperature 71 °F 77 °F 99 °F (1939)
Min Temperature 51 °F 56 °F 41 °F (1971)
Degree Days  
Heating Degree Days 4 1  
Month to date heating degree days 24 13  
Since 1 July heating degree days 24 15  
Cooling Degree Days 0 3  
Month to date cooling degree days 95 128  
Year to date cooling degree days 1162 1206  
Growing Degree Days 11 (Base 50)    
Moisture  
Dew Point 48 °F    
Average Humidity 62    
Maximum Humidity 83    
Minimum Humidity 40    
Precipitation  
Precipitation 0.00 in 0.03 in 1.02 in (1996)
Month to date precipitation 0.06 0.63  
Year to date precipitation 2.78 11.53  
Since 1 July precipitation 0.15  
Sea Level Pressure  
Sea Level Pressure 30.02 in    
Wind  
Wind Speed 1 mph (West)    
Max Wind Speed 8 mph    
Max Gust Speed 13 mph    
Visibility 10 miles    
Events      
T = Trace of Precipitation, MM = Missing Value Source: NWS Daily Summary

Daily Weather History Graph

Daily Weather History Graph

Search for Another Location

Airport or City:

Trip Planner

Search our weather history database for the weather conditions in past years. The results will help you decide how hot, cold, wet, or windy it might be!

Date:

Astronomy

Oct. 30, 2013 Rise Set
Actual Time 7:11 AM PDT 6:01 PM PDT
Civil Twilight 6:45 AM PDT 6:27 PM PDT
Nautical Twilight 6:15 AM PDT 6:56 PM PDT
Astronomical Twilight 5:46 AM PDT 7:26 PM PDT
Moon 3:14 AM PDT (10/30) 3:40 PM PDT (10/30)
Length of Visible Light 11h 42m
Length of Day
10h 50m
Waning Crescent, 16% of the Moon is Illuminated
Oct 30
Waning Crescent
Nov 3
New
Nov 9
First Quarter
Nov 17
Full
Nov 25
Last Quarter

Hourly Weather History & Observations

Time (PDT) Temp. Dew Point Humidity Pressure Visibility Wind Dir Wind Speed Gust Speed Precip Events Conditions
12:47 AM 55.0 °F 46.9 °F 74% 30.00 in 10.0 mi Calm Calm - N/A   Clear
1:47 AM 54.0 °F 46.9 °F 77% 30.01 in 10.0 mi Calm Calm - N/A   Clear
2:47 AM 55.0 °F 46.9 °F 74% 30.01 in 10.0 mi Calm Calm - N/A   Clear
3:47 AM 54.0 °F 46.0 °F 75% 30.00 in 10.0 mi Calm Calm - N/A   Clear
4:47 AM 53.1 °F 46.0 °F 77% 30.01 in 10.0 mi Calm Calm - N/A   Clear
5:47 AM 52.0 °F 46.0 °F 80% 30.02 in 10.0 mi Calm Calm - N/A   Clear
6:47 AM 52.0 °F 46.0 °F 80% 30.03 in 10.0 mi Calm Calm - N/A   Clear
7:47 AM 53.1 °F 46.0 °F 77% 30.04 in 10.0 mi Calm Calm - N/A   Clear
8:47 AM 57.9 °F 46.9 °F 67% 30.05 in 10.0 mi Calm Calm - N/A   Clear
9:47 AM 61.0 °F 46.9 °F 60% 30.06 in 10.0 mi Calm Calm - N/A   Clear
10:47 AM 64.9 °F 46.9 °F 52% 30.05 in 10.0 mi Calm Calm - N/A   Clear
11:47 AM 66.9 °F 46.9 °F 49% 30.04 in 10.0 mi Calm Calm - N/A   Clear
12:47 PM 69.1 °F 46.9 °F 45% 30.02 in 10.0 mi Calm Calm - N/A   Clear
1:47 PM 70.0 °F 44.1 °F 39% 30.00 in 10.0 mi West 5.8 mph - N/A   Clear
2:47 PM 69.1 °F 46.0 °F 44% 29.99 in 10.0 mi Calm Calm - N/A   Clear
3:47 PM 66.9 °F 48.0 °F 51% 29.99 in 10.0 mi Calm Calm - N/A   Clear
4:47 PM 64.9 °F 48.9 °F 56% 29.99 in 10.0 mi West 4.6 mph - N/A   Clear
5:47 PM 63.0 °F 51.1 °F 65% 29.99 in 10.0 mi Variable 4.6 mph - N/A   Clear
6:47 PM 61.0 °F 51.1 °F 70% 30.00 in 10.0 mi West 3.5 mph - N/A   Clear
7:47 PM 60.1 °F 52.0 °F 75% 30.01 in 10.0 mi Calm Calm - N/A   Clear
8:47 PM 59.0 °F 53.1 °F 81% 30.01 in 10.0 mi Calm Calm - N/A   Clear
9:47 PM 59.0 °F 53.1 °F 81% 30.03 in 10.0 mi Calm Calm - N/A   Clear
10:47 PM 57.9 °F 52.0 °F 81% 30.04 in 10.0 mi Calm Calm - N/A   Clear
11:47 PM 57.0 °F 52.0 °F 83% 30.04 in 10.0 mi Calm Calm - N/A   Clear